N0PFE-1 Weather Reports


Display with metric or nautical units.
time (UTC)temp
F
wind
direction
speed
MPH
gust
MPH
rain 1hr
in
rain 24hr
in
rain mn
in
humidity
%
barometer
mb
20260509223528 92 347 4.0 4.0 0.00 0.04 0.04 39 1009.2
20260509222528 91 141 2.0 3.0 0.00 0.04 0.04 41 1009.2
20260509221529 93 315 2.0 5.0 0.00 0.04 0.04 38 1009.2
20260509220526 91 309 3.0 4.0 0.00 0.04 0.04 42 1009.2
20260509215522 93 356 4.0 5.0 0.00 0.04 0.04 40 1009.3
20260509214540 93 335 5.0 7.0 0.00 0.04 0.04 40 1009.4
20260509213520 93 285 4.0 8.0 0.00 0.04 0.04 40 1009.5
20260509212522 93 291 3.0 6.0 0.00 0.04 0.04 40 1009.5
20260509211523 92 209 3.0 6.0 0.00 0.04 0.04 40 1009.7
20260509205517 91 303 4.0 7.0 0.00 0.04 0.04 42 1010.0
20260509204526 90 306 2.0 5.0 0.00 0.04 0.04 45 1010.3
20260509203520 89 204 2.0 4.0 0.00 0.04 0.04 44 1010.4
20260509202523 93 281 2.0 2.0 0.00 0.04 0.04 42 1010.4
20260509202018 93 261 4.0 6.0 0.02 0.04 0.04 39 1010.4
20260509201020 93 264 3.0 5.0 0.02 0.04 0.04 41 1010.5
20260509200042 91 306 4.0 7.0 0.04 0.04 0.04 43 1010.5
20260509195028 92 298 6.0 9.0 0.04 0.04 0.04 42 1010.6
20260509194103 92 265 3.0 5.0 0.04 0.04 0.04 42 1010.8
20260509193119 90 197 3.0 5.0 0.04 0.04 0.04 43 1010.8
20260509192024 82 180 1.0 7.0 0.02 0.02 0.02 54 1011.0
20260509191026 76 0.0 0.0 0.02 0.02 0.02 55 1011.2
20260509190123 93 3.0 3.0 0.00 0.00 0.00 56 1011.4
20260509185136 92 201 5.0 8.0 0.00 0.00 0.00 53 1011.5
20260509184028 93 281 5.0 8.0 0.00 0.00 0.00 53 1011.7
20260509183024 92 224 3.0 5.0 0.00 0.00 0.00 54 1011.9
20260509182032 91 227 4.0 7.0 0.00 0.00 0.00 59 1012.1
20260509181053 90 287 4.0 5.0 0.00 0.00 0.00 59 1012.1
20260509180033 89 28 1.0 4.0 0.00 0.00 0.00 59 1012.3
20260509175139 89 113 4.0 6.0 0.00 0.00 0.00 61 1012.4
20260509174023 89 244 3.0 6.0 0.00 0.00 0.00 63 1012.5
20260509173019 88 175 3.0 6.0 0.00 0.00 0.00 62 1012.6
20260509172050 88 178 4.0 6.0 0.00 0.00 0.00 64 1012.5
20260509171032 88 136 4.0 6.0 0.00 0.00 0.00 63 1012.7
20260509170025 88 187 3.0 6.0 0.00 0.00 0.00 65 1012.8
20260509165042 87 147 3.0 7.0 0.00 0.00 0.00 67 1012.7
20260509164034 85 194 4.0 7.0 0.00 0.00 0.00 70 1012.6
20260509163032 86 166 4.0 8.0 0.00 0.00 0.00 70 1012.6
20260509162029 85 164 5.0 6.0 0.00 0.00 0.00 73 1012.7
20260509161027 82 177 5.0 7.0 0.00 0.00 0.00 77 1012.6
20260509160028 84 191 5.0 8.0 0.00 0.00 0.00 74 1012.7
20260509155021 85 170 6.0 10.0 0.00 0.00 0.00 73 1012.6
20260509154057 84 186 5.0 6.0 0.00 0.00 0.00 73 1012.6
20260509153049 83 143 5.0 9.0 0.00 0.00 0.00 74 1012.5
20260509152025 82 202 4.0 7.0 0.00 0.00 0.00 77 1012.6
20260509151030 81 140 4.0 6.0 0.00 0.00 0.00 78 1012.5
20260509150032 81 154 4.0 6.0 0.00 0.00 0.00 78 1012.4
20260509145032 81 184 4.0 5.0 0.00 0.00 0.00 81 1012.4
20260509144135 82 184 6.0 7.0 0.00 0.00 0.00 78 1012.3
20260509143113 82 162 4.0 6.0 0.00 0.00 0.00 78 1012.1
20260509142032 81 146 5.0 8.0 0.00 0.00 0.00 79 1011.6
20260509141026 80 180 4.0 7.0 0.00 0.00 0.00 81 1011.4
20260509140020 79 160 4.0 7.0 0.00 0.00 0.00 81 1011.4
20260509135055 79 181 5.0 8.0 0.00 0.00 0.00 82 1011.5
20260509134028 78 174 4.0 6.0 0.00 0.00 0.00 84 1011.6
20260509133023 77 182 4.0 5.0 0.00 0.00 0.00 88 1011.6
20260509132033 76 185 4.0 6.0 0.00 0.00 0.00 90 1011.9
20260509131027 75 161 3.0 5.0 0.00 0.00 0.00 93 1011.9
20260509130028 73 175 3.0 4.0 0.00 0.00 0.00 96 1012.1
20260509125024 72 186 2.0 4.0 0.00 0.00 0.00 99 1012.1
20260509124042 71 0.0 0.0 0.00 0.00 0.00 99 1012.1
20260509123109 70 0.0 0.0 0.00 0.00 0.00 99 1012.1
20260509122044 70 0.0 0.0 0.00 0.00 0.00 99 1012.3
20260509121025 70 0.0 0.0 0.00 0.00 0.00 99 1012.4
20260509120206 70 0.0 0.0 0.00 0.00 0.00 99 1012.5
20260509115017 69 0.0 0.0 0.00 0.00 0.00 99 1012.7
20260509114058 69 203 0.0 2.0 0.00 0.00 0.00 99 1012.8
20260509113025 70 127 2.0 4.0 0.00 0.00 0.00 99 1012.8
20260509112104 70 0.0 0.0 0.00 0.00 0.00 99 1013.1
20260509111024 70 0.0 0.0 0.00 0.00 0.00 99 1013.4
20260509110042 70 0.0 0.0 0.00 0.00 0.00 99 1013.3
20260509105047 70 14 3.0 4.0 0.00 0.00 0.00 99 1013.3
20260509104108 70 11 3.0 4.0 0.00 0.00 0.00 99 1013.3
20260509103021 70 346 2.0 3.0 0.00 0.00 0.00 99 1013.3
20260509102033 70 203 1.0 2.0 0.00 0.00 0.00 99 1012.9
20260509101053 70 23 0.0 3.0 0.00 0.00 0.00 99 1012.9
20260509100122 70 3 2.0 3.0 0.00 0.00 0.00 99 1011.9
20260509095033 70 0.0 1.0 0.00 0.00 0.00 99 1011.8
20260509094031 69 304 2.0 3.0 0.00 0.00 0.00 99 1011.7
20260509093029 69 0.0 0.0 0.00 0.00 0.00 99 1011.6
20260509092029 69 0.0 0.0 0.00 0.00 0.00 99 1011.6
20260509091024 69 215 1.0 2.0 0.00 0.00 0.00 99 1011.4
20260509090035 69 0.0 0.0 0.00 0.00 0.00 99 1011.8
20260509085050 69 0.0 0.0 0.00 0.00 0.00 99 1011.9
20260509084058 69 0.0 0.0 0.00 0.00 0.00 99 1011.9
20260509083112 69 0.0 2.0 0.00 0.00 0.00 99 1012.1
20260509082046 69 2 1.0 2.0 0.00 0.00 0.00 99 1012.1
20260509081019 69 0.0 0.0 0.00 0.00 0.00 99 1012.1
20260509080031 69 0.0 0.0 0.00 0.00 0.00 99 1012.3
20260509075028 69 0.0 0.0 0.00 0.00 0.00 99 1012.3
20260509074033 69 0.0 0.0 0.00 0.00 0.00 99 1012.3
20260509073022 69 74 0.0 2.0 0.00 0.00 0.00 99 1012.3
20260509072055 69 23 0.0 1.0 0.00 0.00 0.00 99 1012.4
20260509071028 69 23 1.0 3.0 0.00 0.00 0.00 99 1012.4
20260509070045 69 23 2.0 3.0 0.00 0.00 0.00 99 1012.4
20260509065026 69 14 1.0 4.0 0.00 0.00 0.00 99 1012.1
20260509064022 69 0.0 0.0 0.00 0.00 0.00 99 1011.9
20260509063044 69 0.0 0.0 0.00 0.00 0.00 99 1011.9
20260509062105 69 0.0 0.0 0.00 0.00 0.00 99 1012.1
20260509061026 69 0.0 0.0 0.00 0.00 0.00 99 1012.1
20260509060027 68 0.0 0.0 0.00 0.00 0.00 99 1011.6
20260509055108 68 0.0 0.0 0.00 0.00 0.00 98 1011.6
20260509054104 68 0.0 0.0 0.00 0.00 0.00 98 1011.6
20260509053020 69 0.0 0.0 0.00 0.00 0.00 98 1011.6
20260509052054 69 192 1.0 4.0 0.00 0.00 0.00 98 1011.4
20260509051017 70 162 4.0 6.0 0.00 0.00 0.00 98 1011.0
20260509050030 69 186 1.0 3.0 0.00 0.00 0.00 97 1010.5
20260509045127 69 0.0 0.0 0.00 0.00 0.00 97 1010.6
20260509044028 69 146 2.0 4.0 0.00 0.00 0.00 97 1010.7
20260509043027 69 23 0.0 3.0 0.00 0.00 0.00 97 1010.9
20260509042045 69 283 1.0 3.0 0.00 0.00 0.00 95 1011.4
20260509041105 70 337 2.0 3.0 0.00 0.00 0.00 95 1011.2
20260509040027 71 186 3.0 5.0 0.00 0.00 0.00 94 1011.2
20260509035048 71 165 2.0 4.0 0.00 0.00 0.00 94 1011.1
20260509034027 71 153 3.0 6.0 0.00 0.00 0.00 94 1011.1
20260509033024 71 154 2.0 5.0 0.00 0.00 0.00 93 1011.1
20260509032019 71 126 2.0 3.0 0.00 0.00 0.00 93 1011.1
20260509031052 71 140 3.0 5.0 0.00 0.00 0.00 93 1011.0
20260509030027 72 131 3.0 4.0 0.00 0.00 0.00 92 1011.0
20260509025028 72 135 2.0 3.0 0.00 0.00 0.00 92 1010.9
20260509024048 72 193 1.0 5.0 0.00 0.00 0.00 92 1010.8
20260509023051 72 0.0 0.0 0.00 0.00 0.00 91 1010.7
20260509022021 72 150 2.0 4.0 0.00 0.00 0.00 91 1010.4
20260509021145 72 203 0.0 2.0 0.00 0.00 0.00 90 1010.2
20260509020023 72 0.0 0.0 0.00 0.00 0.00 89 1010.0
20260509015126 73 0.0 1.0 0.00 0.00 0.00 87 1010.0
20260509014022 74 102 2.0 4.0 0.00 0.00 0.00 86 1009.9
20260509013043 74 141 3.0 5.0 0.00 0.00 0.00 86 1009.7
20260509012018 75 154 3.0 7.0 0.00 0.00 0.00 85 1009.6
20260509011020 75 156 3.0 6.0 0.00 0.00 0.00 83 1009.5
20260509010021 76 143 4.0 7.0 0.00 0.00 0.00 82 1009.6
20260509005153 76 134 4.0 7.0 0.00 0.00 0.00 81 1009.7
20260509004033 77 151 3.0 5.0 0.00 0.00 0.00 80 1009.7
20260509003017 78 135 5.0 7.0 0.00 0.00 0.00 79 1009.6
20260509002119 78 146 5.0 8.0 0.00 0.00 0.00 79 1009.5
20260509001120 77 141 6.0 8.0 0.00 0.00 0.00 79 1009.6
20260509000040 77 146 6.0 8.0 0.00 0.00 0.00 79 1009.9
20260508235143 77 142 6.0 8.0 0.00 0.00 0.00 79 1009.9
20260508234049 77 130 4.0 5.0 0.00 0.00 0.00 79 1009.9
20260508233022 78 127 3.0 4.0 0.00 0.00 0.00 78 1009.9
20260508232018 78 117 5.0 6.0 0.00 0.00 0.00 77 1009.7
20260508231021 78 115 5.0 6.0 0.00 0.00 0.00 76 1009.7
20260508230033 79 111 5.0 6.0 0.00 0.00 0.00 75 1009.8
20260508225108 79 123 5.0 7.0 0.00 0.00 0.00 74 1009.7